This demonstration page uses our WeatherBlox Daily Observations layout. Learn more.

Left ArrowRight Arrow

Hourly Observations for January 23, 2019

Temp ( °F °C ) Dew Point ( °F °C ) Humidity (%) Winds ( mph kmh ) Pressure ( in mb ) Visibility ( mi km ) Precip ( " mm )
12:51 am 00:51 Clear 30 -1.1 17 -8.3 58 58 E 3 6 30.24 1024 10 16 N/A
1:51 am 01:51 Clear 30 -1.1 17 -8.3 58 58 N N/A 30.26 1025 10 16 N/A
2:51 am 02:51 Clear 28 -2.2 17 -8.3 63 63 E 3 6 30.27 1025 10 16 N/A
3:51 am 03:51 Clear 26 -3.3 17 -8.3 69 69 N N/A 30.27 1025 10 16 N/A
4:51 am 04:51 Clear 27 -2.8 17 -8.3 66 66 ESE 5 7 30.26 1025 10 16 N/A
5:51 am 05:51 Clear 26 -3.3 17 -8.3 69 69 N N/A 30.29 1026 10 16 N/A
6:51 am 06:51 Clear 24 -4.4 16 -8.9 71 71 S 3 6 30.31 1026 10 16 N/A
7:51 am 07:51 Sunny 28 -2.2 18 -7.8 66 66 N N/A 30.31 1027 10 16 N/A
8:51 am 08:51 Sunny 35 1.7 19 -7.2 52 52 N N/A 30.32 1027 10 16 N/A
9:51 am 09:51 Sunny 41 5 17 -8.3 38 38 VRB 3 6 30.31 1027 10 16 N/A
10:51 am 10:51 Sunny 45 7.2 17 -8.3 33 33 VRB 5 7 30.31 1026 10 16 N/A
11:51 am 11:51 Sunny 47 8.3 14 -10 26 26 W 3 6 30.28 1026 10 16 N/A
12:51 pm 12:51 Sunny 50 10 13 -10.6 22 22 NW 6 9 30.24 1024 10 16 N/A
1:51 pm 13:51 Sunny 52 11.1 9 -12.8 17 17 WNW 7 11 30.20 1023 10 16 N/A
2:51 pm 14:51 Sunny 54 12.2 10 -12.2 17 17 WNW 8 13 30.17 1022 10 16 N/A
3:51 pm 15:51 Sunny 54 12.2 12 -11.1 19 19 WSW 6 9 30.13 1020 10 16 N/A
4:51 pm 16:51 Sunny 54 12.2 12 -11.1 19 19 WNW 6 9 30.12 1020 10 16 N/A
5:51 pm 17:51 Clear 49 9.4 15 -9.4 26 26 WSW 6 9 30.13 1020 10 16 N/A
6:51 pm 18:51 Clear 43 6.1 16 -8.9 34 34 N N/A 30.14 1021 10 16 N/A
7:51 pm 19:51 Clear 43 6.1 14 -10 31 31 WNW 6 9 30.14 1021 10 16 N/A
8:51 pm 20:51 Clear 39 3.9 16 -8.9 39 39 NW 3 6 30.16 1021 10 16 N/A
9:51 pm 21:51 Clear 36 2.2 16 -8.9 44 44 N N/A 30.14 1021 10 16 N/A
10:51 pm 22:51 Clear 35 1.7 17 -8.3 48 48 N N/A 30.13 1020 10 16 N/A
11:51 pm 23:51 Clear 33 0.6 18 -7.8 54 54 E 7 11 30.12 1020 10 16 N/A

Powered by AerisWeather